Location: Newark
(25.6108°S, 54.5803°W)
Time: 08:22:12
(UTC+00:00)

N. Korean satellite - Visible Passes

Search period start: 01 October 2020 00:00
Search period end: 11 October 2020 00:00
Orbit: 454 x 503 km, 97.2° (Epoch: 30 September)

Date Brightness Start Highest point End Pass type
(mag) Time Alt. Az. Time Alt. Az. Time Alt. Az.
01 Oct 9.9 07:46:36 10° ENE 07:48:32 14° ESE 07:50:28 10° SE visible
02 Oct 10.2 22:00:49 10° SW 22:02:28 13° WSW 22:04:09 10° W visible
03 Oct 7.0 08:26:09 10° NNE 08:29:32 63° ESE 08:32:58 10° S visible
04 Oct 9.1 08:00:47 10° NE 08:03:35 24° ESE 08:06:24 10° SSE visible
06 Oct 6.4 08:41:14 10° N 08:44:38 70° W 08:48:06 10° SSW visible
07 Oct 8.0 08:15:24 10° NNE 08:18:38 40° ESE 08:21:54 10° S visible
08 Oct 9.7 07:50:27 10° ENE 07:52:43 17° ESE 07:55:00 10° SSE visible
09 Oct 10.5 22:05:30 10° SW 22:06:40 11° WSW 22:07:50 10° W visible
10 Oct 6.7 08:30:16 10° NNE 08:33:40 76° ESE 08:37:08 10° S visible
